Time,TemperatureF,DewpointF,PressureIn,WindDirection,WindDirectionDegrees,WindSpeedMPH,WindSpeedGustMPH,Humidity,HourlyPrecipIn,Conditions,Clouds,dailyrainin,SolarRadiationWatts/m^2,SoftwareType,DateUTC
2013-08-17 00:02:00,82.6,78.0,30.07,ESE,116,2.0,8.0,86,0.00,,,0.01,0,Wunderground v.1.15,2013-08-17 04:02:00,
2013-08-17 00:04:00,82.6,78.0,30.06,SE,139,3.0,8.0,86,0.00,,,0.01,0,Wunderground v.1.15,2013-08-17 04:04:00,
2013-08-17 00:10:00,82.5,77.9,30.07,SSE,154,4.0,4.0,86,0.00,,,0.00,0,Wunderground v.1.15,2013-08-17 04:10:00,
2013-08-17 00:12:00,82.5,77.9,30.07,SSE,154,4.0,4.0,86,0.00,,,0.00,0,Wunderground v.1.15,2013-08-17 04:12:00,
2013-08-17 00:18:00,82.4,77.8,30.07,South,176,3.0,5.0,86,0.00,,,0.00,0,Wunderground v.1.15,2013-08-17 04:18:00,
2013-08-17 00:24:00,82.4,78.1,30.07,SSE,165,4.0,6.0,87,0.00,,,0.00,0,Wunderground v.1.15,2013-08-17 04:24:00,
2013-08-17 00:27:00,82.3,78.0,30.07,SSE,153,3.0,6.0,87,0.00,,,0.00,0,Wunderground v.1.15,2013-08-17 04:27:00,
2013-08-17 00:34:00,82.3,78.0,30.07,SSE,153,1.0,2.0,87,0.00,,,0.00,0,Wunderground v.1.15,2013-08-17 04:34:00,
2013-08-17 00:38:00,82.3,78.0,30.07,SSE,153,0.0,2.0,87,0.00,,,0.00,0,Wunderground v.1.15,2013-08-17 04:38:00,
2013-08-17 00:44:00,82.2,77.9,30.07,SSE,153,0.0,0.0,87,0.00,,,0.00,0,Wunderground v.1.15,2013-08-17 04:44:00,
2013-08-17 00:49:00,82.1,77.8,30.07,SSE,154,0.0,3.0,87,0.00,,,0.00,0,Wunderground v.1.15,2013-08-17 04:49:00,
2013-08-17 00:56:00,82.1,77.8,30.06,SSE,154,1.0,3.0,87,0.00,,,0.00,0,Wunderground v.1.15,2013-08-17 04:56:00,
2013-08-17 01:01:00,82.0,77.7,30.06,SSE,151,2.0,3.0,87,0.00,,,0.00,0,Wunderground v.1.15,2013-08-17 05:01:00,
2013-08-17 01:08:00,81.9,78.0,30.06,SSE,158,2.0,4.0,88,0.00,,,0.00,0,Wunderground v.1.15,2013-08-17 05:08:00,
2013-08-17 01:14:00,81.9,78.0,30.06,SSE,148,2.0,4.0,88,0.00,,,0.00,0,Wunderground v.1.15,2013-08-17 05:14:00,
2013-08-17 01:20:00,81.8,77.9,30.06,SSE,155,2.0,2.0,88,0.00,,,0.00,0,Wunderground v.1.15,2013-08-17 05:20:00,
2013-08-17 01:26:00,81.8,77.9,30.06,SSE,158,2.0,4.0,88,0.00,,,0.00,0,Wunderground v.1.15,2013-08-17 05:26:00,
2013-08-17 01:32:00,81.8,77.9,30.06,SSE,159,1.0,1.0,88,0.00,,,0.00,0,Wunderground v.1.15,2013-08-17 05:32:00,
2013-08-17 01:38:00,81.7,78.1,30.06,SSE,155,1.0,8.0,89,0.00,,,0.00,0,Wunderground v.1.15,2013-08-17 05:38:00,
2013-08-17 01:43:00,81.7,78.1,30.06,SSE,164,3.0,5.0,89,0.00,,,0.00,0,Wunderground v.1.15,2013-08-17 05:43:00,
2013-08-17 01:50:00,81.6,78.0,30.06,SSE,155,2.0,2.0,89,0.00,,,0.00,0,Wunderground v.1.15,2013-08-17 05:50:00,
2013-08-17 01:55:00,81.6,78.0,30.06,SSE,155,1.0,3.0,89,0.00,,,0.00,0,Wunderground v.1.15,2013-08-17 05:55:00,
2013-08-17 02:02:00,81.6,78.0,30.06,SSE,158,1.0,5.0,89,0.00,,,0.00,0,Wunderground v.1.15,2013-08-17 06:02:00,
2013-08-17 02:08:00,81.5,77.9,30.05,SSE,158,1.0,5.0,89,0.00,,,0.00,0,Wunderground v.1.15,2013-08-17 06:08:00,
2013-08-17 02:14:00,81.5,78.3,30.05,SSE,159,0.0,4.0,90,0.00,,,0.00,0,Wunderground v.1.15,2013-08-17 06:14:00,
2013-08-17 02:20:00,81.4,78.2,30.05,SSE,158,0.0,0.0,90,0.00,,,0.00,0,Wunderground v.1.15,2013-08-17 06:20:00,
2013-08-17 02:26:00,81.3,78.1,30.05,SSE,159,1.0,3.0,90,0.00,,,0.00,0,Wunderground v.1.15,2013-08-17 06:26:00,
2013-08-17 02:32:00,81.3,78.1,30.05,SSE,159,1.0,1.0,90,0.00,,,0.00,0,Wunderground v.1.15,2013-08-17 06:32:00,
2013-08-17 02:38:00,81.2,78.0,30.05,SSE,159,0.0,1.0,90,0.00,,,0.00,0,Wunderground v.1.15,2013-08-17 06:38:00,
2013-08-17 02:44:00,81.2,78.0,30.05,SSE,159,0.0,0.0,90,0.00,,,0.00,0,Wunderground v.1.15,2013-08-17 06:44:00,
2013-08-17 02:50:00,81.1,77.9,30.05,SSE,159,0.0,0.0,90,0.00,,,0.00,0,Wunderground v.1.15,2013-08-17 06:50:00,
2013-08-17 02:56:00,81.1,77.9,30.05,SSE,159,0.0,0.0,90,0.00,,,0.00,0,Wunderground v.1.15,2013-08-17 06:56:00,
2013-08-17 03:02:00,81.0,78.1,30.05,SSE,159,0.0,0.0,91,0.00,,,0.00,0,Wunderground v.1.15,2013-08-17 07:02:00,
2013-08-17 03:08:00,81.0,78.1,30.05,SSE,159,0.0,0.0,91,0.00,,,0.00,0,Wunderground v.1.15,2013-08-17 07:08:00,
2013-08-17 03:13:00,81.0,78.1,30.05,SSE,159,0.0,0.0,91,0.00,,,0.00,0,Wunderground v.1.15,2013-08-17 07:13:00,
2013-08-17 03:20:00,80.9,78.0,30.04,SSE,159,0.0,1.0,91,0.00,,,0.00,0,Wunderground v.1.15,2013-08-17 07:20:00,
2013-08-17 03:26:00,80.9,78.0,30.04,SSE,159,0.0,1.0,91,0.00,,,0.00,0,Wunderground v.1.15,2013-08-17 07:26:00,
2013-08-17 03:31:00,80.9,78.0,30.05,SSE,159,0.0,2.0,91,0.00,,,0.00,0,Wunderground v.1.15,2013-08-17 07:31:00,
2013-08-17 03:38:00,80.9,78.0,30.04,SSE,160,1.0,2.0,91,0.00,,,0.00,0,Wunderground v.1.15,2013-08-17 07:38:00,
2013-08-17 03:44:00,80.8,77.9,30.04,SSE,158,0.0,1.0,91,0.00,,,0.00,0,Wunderground v.1.15,2013-08-17 07:44:00,
2013-08-17 03:50:00,80.9,78.0,30.04,SE,142,1.0,5.0,91,0.00,,,0.00,0,Wunderground v.1.15,2013-08-17 07:50:00,
2013-08-17 03:56:00,80.9,78.0,30.04,SE,142,1.0,5.0,91,0.00,,,0.00,0,Wunderground v.1.15,2013-08-17 07:56:00,
2013-08-17 04:02:00,80.8,77.9,30.05,SE,142,0.0,0.0,91,0.00,,,0.00,0,Wunderground v.1.15,2013-08-17 08:02:00,
2013-08-17 04:08:00,80.8,77.9,30.04,SE,143,0.0,0.0,91,0.00,,,0.00,0,Wunderground v.1.15,2013-08-17 08:08:00,
2013-08-17 04:14:00,80.8,77.9,30.04,SE,142,0.0,0.0,91,0.00,,,0.00,0,Wunderground v.1.15,2013-08-17 08:14:00,
2013-08-17 04:20:00,80.8,77.9,30.04,SE,143,0.0,0.0,91,0.00,,,0.00,0,Wunderground v.1.15,2013-08-17 08:20:00,
2013-08-17 04:26:00,80.7,78.2,30.04,SE,143,0.0,0.0,92,0.00,,,0.00,0,Wunderground v.1.15,2013-08-17 08:26:00,
2013-08-17 04:32:00,80.7,78.2,30.04,SE,143,0.0,0.0,92,0.00,,,0.00,0,Wunderground v.1.15,2013-08-17 08:32:00,
2013-08-17 04:38:00,80.7,78.2,30.04,SE,143,0.0,0.0,92,0.00,,,0.00,0,Wunderground v.1.15,2013-08-17 08:38:00,
2013-08-17 04:44:00,80.6,78.1,30.04,SE,143,0.0,0.0,92,0.00,,,0.00,0,Wunderground v.1.15,2013-08-17 08:44:00,
2013-08-17 04:50:00,80.5,78.0,30.04,SE,143,0.0,0.0,92,0.00,,,0.00,0,Wunderground v.1.15,2013-08-17 08:50:00,
2013-08-17 04:56:00,80.5,78.0,30.04,SE,143,0.0,0.0,92,0.00,,,0.00,0,Wunderground v.1.15,2013-08-17 08:56:00,
2013-08-17 05:02:00,80.4,77.9,30.04,SE,143,0.0,0.0,92,0.00,,,0.00,0,Wunderground v.1.15,2013-08-17 09:02:00,
2013-08-17 05:08:00,80.4,77.9,30.04,SE,143,0.0,0.0,92,0.00,,,0.00,0,Wunderground v.1.15,2013-08-17 09:08:00,
2013-08-17 05:14:00,80.3,77.8,30.04,SE,143,0.0,0.0,92,0.00,,,0.00,0,Wunderground v.1.15,2013-08-17 09:14:00,
2013-08-17 05:20:00,80.3,78.1,30.04,SE,143,0.0,0.0,93,0.00,,,0.00,0,Wunderground v.1.15,2013-08-17 09:20:00,
2013-08-17 05:26:00,80.3,78.1,30.04,SE,143,0.0,0.0,93,0.00,,,0.00,0,Wunderground v.1.15,2013-08-17 09:26:00,
2013-08-17 05:32:00,80.2,78.0,30.04,SE,143,0.0,0.0,93,0.00,,,0.00,0,Wunderground v.1.15,2013-08-17 09:32:00,
2013-08-17 05:38:00,80.2,78.0,30.04,SE,143,0.0,0.0,93,0.00,,,0.00,0,Wunderground v.1.15,2013-08-17 09:38:00,
2013-08-17 05:44:00,80.2,78.0,30.04,SE,143,0.0,0.0,93,0.00,,,0.00,0,Wunderground v.1.15,2013-08-17 09:44:00,
2013-08-17 05:50:00,80.2,78.0,30.04,SE,143,0.0,0.0,93,0.00,,,0.00,0,Wunderground v.1.15,2013-08-17 09:50:00,
2013-08-17 05:56:00,80.2,78.0,30.04,SE,143,0.0,0.0,93,0.00,,,0.00,0,Wunderground v.1.15,2013-08-17 09:56:00,
2013-08-17 06:02:00,80.2,78.0,30.04,SE,143,0.0,0.0,93,0.00,,,0.00,0,Wunderground v.1.15,2013-08-17 10:02:00,
2013-08-17 06:07:00,80.2,78.3,30.04,SE,144,0.0,0.0,94,0.00,,,0.00,0,Wunderground v.1.15,2013-08-17 10:07:00,
2013-08-17 06:14:00,80.3,78.4,30.04,SE,144,0.0,0.0,94,0.00,,,0.00,0,Wunderground v.1.15,2013-08-17 10:14:00,
2013-08-17 06:19:00,80.3,78.1,30.04,SE,144,0.0,0.0,93,0.00,,,0.00,0,Wunderground v.1.15,2013-08-17 10:19:00,
2013-08-17 06:26:00,80.2,78.0,30.04,SE,144,0.0,0.0,93,0.00,,,0.00,0,Wunderground v.1.15,2013-08-17 10:26:00,
2013-08-17 06:32:00,80.2,78.0,30.04,SE,144,0.0,0.0,93,0.00,,,0.00,0,Wunderground v.1.15,2013-08-17 10:32:00,
2013-08-17 06:38:00,80.1,77.9,30.04,SE,144,0.0,0.0,93,0.00,,,0.00,0,Wunderground v.1.15,2013-08-17 10:38:00,
2013-08-17 06:44:00,80.1,77.9,30.04,SE,144,0.0,0.0,93,0.00,,,0.00,0,Wunderground v.1.15,2013-08-17 10:44:00,
2013-08-17 06:50:00,80.0,78.1,30.05,SE,144,0.0,0.0,94,0.00,,,0.00,0,Wunderground v.1.15,2013-08-17 10:50:00,
2013-08-17 06:56:00,80.1,78.2,30.05,SE,144,0.0,0.0,94,0.00,,,0.00,5,Wunderground v.1.15,2013-08-17 10:56:00,
2013-08-17 07:02:00,80.1,78.2,30.05,SE,145,0.0,0.0,94,0.00,,,0.00,9,Wunderground v.1.15,2013-08-17 11:02:00,
2013-08-17 07:08:00,80.1,78.2,30.05,SE,145,0.0,3.0,94,0.00,,,0.00,18,Wunderground v.1.15,2013-08-17 11:08:00,
2013-08-17 07:14:00,80.2,78.3,30.05,SE,146,0.0,0.0,94,0.00,,,0.00,32,Wunderground v.1.15,2013-08-17 11:14:00,
2013-08-17 07:20:00,80.3,78.4,30.05,SSE,150,0.0,0.0,94,0.00,,,0.00,40,Wunderground v.1.15,2013-08-17 11:20:00,
2013-08-17 07:26:00,80.5,78.6,30.06,SSE,148,1.0,3.0,94,0.00,,,0.00,47,Wunderground v.1.15,2013-08-17 11:26:00,
2013-08-17 07:32:00,80.7,78.5,30.06,SSE,148,1.0,1.0,93,0.00,,,0.00,44,Wunderground v.1.15,2013-08-17 11:32:00,
2013-08-17 07:38:00,80.7,78.5,30.06,SSE,148,0.0,1.0,93,0.00,,,0.00,49,Wunderground v.1.15,2013-08-17 11:38:00,
2013-08-17 07:44:00,80.9,78.7,30.06,SSE,148,0.0,0.0,93,0.00,,,0.00,56,Wunderground v.1.15,2013-08-17 11:44:00,
2013-08-17 07:50:00,81.0,78.8,30.06,SSE,148,0.0,0.0,93,0.00,,,0.00,67,Wunderground v.1.15,2013-08-17 11:50:00,
2013-08-17 07:56:00,81.0,78.8,30.06,SSE,148,0.0,0.0,93,0.00,,,0.00,79,Wunderground v.1.15,2013-08-17 11:56:00,
2013-08-17 08:02:00,81.1,78.9,30.07,SSE,148,0.0,0.0,93,0.00,,,0.00,88,Wunderground v.1.15,2013-08-17 12:02:00,
2013-08-17 08:06:00,81.2,79.0,30.07,SSE,148,0.0,0.0,93,0.00,,,0.00,93,Wunderground v.1.15,2013-08-17 12:06:00,
2013-08-17 08:11:00,81.3,78.8,30.07,SSE,148,0.0,0.0,92,0.00,,,0.00,102,Wunderground v.1.15,2013-08-17 12:11:00,
2013-08-17 08:18:00,81.4,78.9,30.07,SSE,148,0.0,0.0,92,0.00,,,0.00,109,Wunderground v.1.15,2013-08-17 12:18:00,
2013-08-17 08:24:00,81.5,78.9,30.07,SSE,149,0.0,2.0,92,0.00,,,0.00,120,Wunderground v.1.15,2013-08-17 12:24:00,
2013-08-17 08:30:00,81.7,78.8,30.07,SSE,149,0.0,0.0,91,0.00,,,0.00,128,Wunderground v.1.15,2013-08-17 12:30:00,
2013-08-17 08:36:00,81.9,79.0,30.08,SSE,149,0.0,3.0,91,0.00,,,0.00,141,Wunderground v.1.15,2013-08-17 12:36:00,
2013-08-17 08:42:00,82.1,78.9,30.08,SSE,149,2.0,3.0,90,0.00,,,0.00,156,Wunderground v.1.15,2013-08-17 12:42:00,
2013-08-17 08:48:00,82.3,79.1,30.08,SSE,150,3.0,5.0,90,0.00,,,0.00,172,Wunderground v.1.15,2013-08-17 12:48:00,
2013-08-17 08:53:00,82.5,78.9,30.08,SSE,149,4.0,5.0,89,0.00,,,0.00,192,Wunderground v.1.15,2013-08-17 12:53:00,
2013-08-17 09:00:00,82.8,79.2,30.08,SSE,150,5.0,9.0,89,0.00,,,0.00,197,Wunderground v.1.15,2013-08-17 13:00:00,
2013-08-17 09:06:00,83.0,79.4,30.08,SE,142,4.0,9.0,89,0.00,,,0.00,204,Wunderground v.1.15,2013-08-17 13:06:00,
2013-08-17 09:12:00,83.2,78.9,30.08,SSE,159,3.0,6.0,87,0.00,,,0.00,202,Wunderground v.1.15,2013-08-17 13:12:00,
2013-08-17 09:18:00,83.4,79.1,30.08,SE,145,5.0,8.0,87,0.00,,,0.00,206,Wunderground v.1.15,2013-08-17 13:18:00,
2013-08-17 09:24:00,83.6,79.3,30.08,SE,142,4.0,5.0,87,0.00,,,0.00,202,Wunderground v.1.15,2013-08-17 13:24:00,
2013-08-17 09:29:00,83.8,79.2,30.08,SSE,160,3.0,3.0,86,0.00,,,0.00,200,Wunderground v.1.15,2013-08-17 13:29:00,
2013-08-17 09:36:00,84.1,79.5,30.08,SE,144,3.0,7.0,86,0.00,,,0.00,207,Wunderground v.1.15,2013-08-17 13:36:00,
2013-08-17 09:41:00,84.1,79.5,30.08,SE,146,3.0,3.0,86,0.00,,,0.00,193,Wunderground v.1.15,2013-08-17 13:41:00,
2013-08-17 09:48:00,84.3,79.7,30.08,ESE,115,2.0,4.0,86,0.00,,,0.00,227,Wunderground v.1.15,2013-08-17 13:48:00,
2013-08-17 09:54:00,84.3,79.7,30.08,SE,126,3.0,7.0,86,0.00,,,0.00,243,Wunderground v.1.15,2013-08-17 13:54:00,
2013-08-17 10:00:00,84.3,79.7,30.08,ESE,115,4.0,4.0,86,0.00,,,0.00,265,Wunderground v.1.15,2013-08-17 14:00:00,
2013-08-17 10:06:00,84.4,79.7,30.09,East,99,4.0,4.0,86,0.00,,,0.00,309,Wunderground v.1.15,2013-08-17 14:06:00,
2013-08-17 10:12:00,84.5,79.5,30.09,SE,138,4.0,4.0,85,0.00,,,0.00,299,Wunderground v.1.15,2013-08-17 14:12:00,
2013-08-17 10:18:00,84.7,79.7,30.09,SE,137,5.0,5.0,85,0.00,,,0.00,410,Wunderground v.1.15,2013-08-17 14:18:00,
2013-08-17 10:23:00,84.9,79.9,30.09,ESE,122,6.0,8.0,85,0.00,,,0.00,366,Wunderground v.1.15,2013-08-17 14:23:00,
2013-08-17 10:30:00,85.1,79.7,30.09,SE,138,5.0,5.0,84,0.00,,,0.00,373,Wunderground v.1.15,2013-08-17 14:30:00,
2013-08-17 10:36:00,85.3,79.9,30.09,ESE,120,5.0,5.0,84,0.00,,,0.00,527,Wunderground v.1.15,2013-08-17 14:36:00,
2013-08-17 10:42:00,85.6,79.8,30.10,SE,130,6.0,9.0,83,0.00,,,0.00,543,Wunderground v.1.15,2013-08-17 14:42:00,
2013-08-17 10:48:00,86.2,80.1,30.10,East,94,5.0,9.0,82,0.00,,,0.00,796,Wunderground v.1.15,2013-08-17 14:48:00,
2013-08-17 10:54:00,86.8,80.3,30.10,ESE,112,5.0,6.0,81,0.00,,,0.00,751,Wunderground v.1.15,2013-08-17 14:54:00,
2013-08-17 11:00:00,87.0,79.7,30.10,SE,134,6.0,10.0,79,0.00,,,0.00,719,Wunderground v.1.15,2013-08-17 15:00:00,
2013-08-17 11:06:00,87.2,79.9,30.10,ESE,109,8.0,10.0,79,0.00,,,0.00,733,Wunderground v.1.15,2013-08-17 15:06:00,
2013-08-17 11:12:00,87.3,80.0,30.10,SSE,154,7.0,7.0,79,0.00,,,0.00,689,Wunderground v.1.15,2013-08-17 15:12:00,
2013-08-17 11:18:00,87.4,79.7,30.09,ESE,123,6.0,12.0,78,0.00,,,0.00,605,Wunderground v.1.15,2013-08-17 15:18:00,
2013-08-17 11:24:00,87.2,79.9,30.09,ESE,116,6.0,6.0,79,0.00,,,0.00,643,Wunderground v.1.15,2013-08-17 15:24:00,
2013-08-17 11:30:00,87.2,79.9,30.10,ESE,107,6.0,6.0,79,0.00,,,0.00,735,Wunderground v.1.15,2013-08-17 15:30:00,
2013-08-17 11:36:00,87.4,79.7,30.10,East,92,6.0,8.0,78,0.00,,,0.00,810,Wunderground v.1.15,2013-08-17 15:36:00,
2013-08-17 11:42:00,87.6,79.9,30.10,SE,127,6.0,6.0,78,0.00,,,0.00,830,Wunderground v.1.15,2013-08-17 15:42:00,
2013-08-17 11:48:00,87.7,79.6,30.09,South,181,7.0,10.0,77,0.00,,,0.00,893,Wunderground v.1.15,2013-08-17 15:48:00,
2013-08-17 11:54:00,87.9,79.4,30.09,ESE,105,7.0,7.0,76,0.00,,,0.00,930,Wunderground v.1.15,2013-08-17 15:54:00,
2013-08-17 12:00:00,87.8,79.7,30.09,SSE,158,6.0,9.0,77,0.00,,,0.00,914,Wunderground v.1.15,2013-08-17 16:00:00,
2013-08-17 12:06:00,87.8,79.7,30.09,SE,144,7.0,10.0,77,0.00,,,0.00,898,Wunderground v.1.15,2013-08-17 16:06:00,
2013-08-17 12:12:00,87.9,79.4,30.09,SE,135,8.0,9.0,76,0.00,,,0.00,882,Wunderground v.1.15,2013-08-17 16:12:00,
2013-08-17 12:18:00,87.8,79.3,30.09,East,91,8.0,9.0,76,0.00,,,0.00,891,Wunderground v.1.15,2013-08-17 16:18:00,
2013-08-17 12:24:00,88.4,79.9,30.09,East,95,7.0,10.0,76,0.00,,,0.00,902,Wunderground v.1.15,2013-08-17 16:24:00,
2013-08-17 12:30:00,88.2,79.3,30.08,SE,136,7.0,7.0,75,0.00,,,0.00,911,Wunderground v.1.15,2013-08-17 16:30:00,
2013-08-17 12:36:00,88.1,79.2,30.08,ESE,103,8.0,12.0,75,0.00,,,0.00,921,Wunderground v.1.15,2013-08-17 16:36:00,
2013-08-17 12:42:00,87.9,79.4,30.08,East,81,8.0,11.0,76,0.00,,,0.00,930,Wunderground v.1.15,2013-08-17 16:42:00,
2013-08-17 12:48:00,87.9,79.0,30.08,SE,125,8.0,13.0,75,0.00,,,0.00,935,Wunderground v.1.15,2013-08-17 16:48:00,
2013-08-17 12:53:00,88.0,79.1,30.08,SSE,149,8.0,9.0,75,0.00,,,0.00,942,Wunderground v.1.15,2013-08-17 16:53:00,
2013-08-17 13:00:00,88.1,80.0,30.08,East,97,8.0,8.0,77,0.00,,,0.00,958,Wunderground v.1.15,2013-08-17 17:00:00,
2013-08-17 13:06:00,88.2,79.7,30.07,East,95,8.0,10.0,76,0.00,,,0.00,972,Wunderground v.1.15,2013-08-17 17:06:00,
2013-08-17 13:12:00,87.9,79.4,30.07,ESE,116,8.0,11.0,76,0.00,,,0.00,984,Wunderground v.1.15,2013-08-17 17:12:00,
2013-08-17 13:18:00,88.0,79.5,30.06,ESE,116,8.0,11.0,76,0.00,,,0.00,1002,Wunderground v.1.15,2013-08-17 17:18:00,
2013-08-17 13:24:00,88.1,79.6,30.07,SE,145,7.0,15.0,76,0.00,,,0.00,1004,Wunderground v.1.15,2013-08-17 17:24:00,
2013-08-17 13:30:00,88.3,79.4,30.08,SE,137,7.0,13.0,75,0.00,,,0.00,861,Wunderground v.1.15,2013-08-17 17:30:00,
2013-08-17 13:36:00,88.2,79.7,30.08,SSE,148,8.0,13.0,76,0.00,,,0.00,918,Wunderground v.1.15,2013-08-17 17:36:00,
2013-08-17 13:42:00,88.2,78.9,30.07,SE,145,8.0,11.0,74,0.00,,,0.00,861,Wunderground v.1.15,2013-08-17 17:42:00,
2013-08-17 13:48:00,88.1,79.2,30.07,ESE,115,9.0,11.0,75,0.00,,,0.00,675,Wunderground v.1.15,2013-08-17 17:48:00,
2013-08-17 13:54:00,87.7,79.2,30.08,ESE,123,8.0,11.0,76,0.00,,,0.00,128,Wunderground v.1.15,2013-08-17 17:54:00,
2013-08-17 14:00:00,86.7,79.0,30.07,ESE,113,7.0,7.0,78,0.00,,,0.00,118,Wunderground v.1.15,2013-08-17 18:00:00,
2013-08-17 14:06:00,85.9,79.0,30.07,ESE,115,7.0,9.0,80,0.00,,,0.00,116,Wunderground v.1.15,2013-08-17 18:06:00,
2013-08-17 14:12:00,85.4,78.5,30.07,East,88,8.0,8.0,80,0.00,,,0.00,105,Wunderground v.1.15,2013-08-17 18:12:00,
2013-08-17 14:18:00,85.1,78.6,30.07,SSE,150,7.0,11.0,81,0.00,,,0.00,95,Wunderground v.1.15,2013-08-17 18:18:00,
2013-08-17 14:24:00,84.9,78.4,30.06,ESE,117,6.0,11.0,81,0.00,,,0.00,93,Wunderground v.1.15,2013-08-17 18:24:00,
2013-08-17 14:30:00,84.8,78.3,30.06,SE,134,6.0,6.0,81,0.00,,,0.00,100,Wunderground v.1.15,2013-08-17 18:30:00,
2013-08-17 14:36:00,84.7,78.6,30.06,ESE,122,7.0,9.0,82,0.00,,,0.00,148,Wunderground v.1.15,2013-08-17 18:36:00,
2013-08-17 14:42:00,84.8,78.7,30.06,ESE,119,6.0,10.0,82,0.00,,,0.00,288,Wunderground v.1.15,2013-08-17 18:42:00,
2013-08-17 14:47:00,85.0,79.3,30.06,ESE,115,6.0,10.0,83,0.00,,,0.00,346,Wunderground v.1.15,2013-08-17 18:47:00,
2013-08-17 14:54:00,85.1,78.6,30.06,ESE,114,8.0,12.0,81,0.00,,,0.00,329,Wunderground v.1.15,2013-08-17 18:54:00,
2013-08-17 15:00:00,85.1,79.0,30.05,SE,126,8.0,8.0,82,0.00,,,0.00,269,Wunderground v.1.15,2013-08-17 19:00:00,
2013-08-17 15:06:00,85.2,79.1,30.05,ESE,102,7.0,8.0,82,0.00,,,0.00,253,Wunderground v.1.15,2013-08-17 19:06:00,
2013-08-17 15:12:00,85.2,79.1,30.05,ESE,120,7.0,7.0,82,0.00,,,0.00,186,Wunderground v.1.15,2013-08-17 19:12:00,
2013-08-17 15:18:00,85.1,79.0,30.05,East,100,7.0,10.0,82,0.00,,,0.00,197,Wunderground v.1.15,2013-08-17 19:18:00,
2013-08-17 15:24:00,85.2,79.1,30.05,ESE,123,6.0,6.0,82,0.00,,,0.00,202,Wunderground v.1.15,2013-08-17 19:24:00,
2013-08-17 15:30:00,85.1,79.0,30.05,ENE,71,6.0,6.0,82,0.00,,,0.00,209,Wunderground v.1.15,2013-08-17 19:30:00,
2013-08-17 15:36:00,85.1,79.0,30.04,ESE,123,6.0,6.0,82,0.00,,,0.00,214,Wunderground v.1.15,2013-08-17 19:36:00,
2013-08-17 15:41:00,85.0,78.9,30.04,ESE,111,7.0,7.0,82,0.00,,,0.00,223,Wunderground v.1.15,2013-08-17 19:41:00,
2013-08-17 15:48:00,84.8,79.1,30.04,ESE,106,8.0,13.0,83,0.00,,,0.00,213,Wunderground v.1.15,2013-08-17 19:48:00,
2013-08-17 15:54:00,84.7,78.6,30.04,East,98,7.0,10.0,82,0.00,,,0.00,214,Wunderground v.1.15,2013-08-17 19:54:00,
2013-08-17 16:00:00,84.7,79.0,30.04,SE,134,8.0,13.0,83,0.00,,,0.00,221,Wunderground v.1.15,2013-08-17 20:00:00,
2013-08-17 16:06:00,84.6,78.9,30.04,South,170,8.0,13.0,83,0.00,,,0.00,227,Wunderground v.1.15,2013-08-17 20:06:00,
2013-08-17 16:12:00,84.7,79.0,30.04,East,100,7.0,11.0,83,0.00,,,0.00,246,Wunderground v.1.15,2013-08-17 20:12:00,
2013-08-17 16:18:00,84.6,78.5,30.03,SE,140,7.0,11.0,82,0.00,,,0.00,262,Wunderground v.1.15,2013-08-17 20:18:00,
2013-08-17 16:24:00,84.7,78.6,30.03,East,92,7.0,8.0,82,0.00,,,0.00,287,Wunderground v.1.15,2013-08-17 20:24:00,
2013-08-17 16:30:00,84.9,78.8,30.03,East,90,6.0,6.0,82,0.00,,,0.00,299,Wunderground v.1.15,2013-08-17 20:30:00,
2013-08-17 16:36:00,84.9,78.4,30.03,SE,140,7.0,7.0,81,0.00,,,0.00,308,Wunderground v.1.15,2013-08-17 20:36:00,
2013-08-17 16:41:00,85.1,79.0,30.03,East,98,6.0,6.0,82,0.00,,,0.00,299,Wunderground v.1.15,2013-08-17 20:41:00,
2013-08-17 16:48:00,85.1,79.0,30.03,ESE,121,7.0,13.0,82,0.00,,,0.00,301,Wunderground v.1.15,2013-08-17 20:48:00,
2013-08-17 16:54:00,85.0,78.9,30.04,ESE,120,8.0,8.0,82,0.00,,,0.00,362,Wunderground v.1.15,2013-08-17 20:54:00,
2013-08-17 17:00:00,85.1,79.0,30.05,SSE,152,7.0,9.0,82,0.00,,,0.00,401,Wunderground v.1.15,2013-08-17 21:00:00,
2013-08-17 17:06:00,85.3,78.8,30.05,ESE,119,7.0,12.0,81,0.00,,,0.00,445,Wunderground v.1.15,2013-08-17 21:06:00,
2013-08-17 17:12:00,85.5,79.4,30.05,East,96,7.0,7.0,82,0.00,,,0.00,541,Wunderground v.1.15,2013-08-17 21:12:00,
2013-08-17 17:18:00,85.7,79.2,30.05,SE,139,7.0,7.0,81,0.00,,,0.00,531,Wunderground v.1.15,2013-08-17 21:18:00,
2013-08-17 17:24:00,86.0,79.1,30.05,ESE,122,7.0,8.0,80,0.00,,,0.00,348,Wunderground v.1.15,2013-08-17 21:24:00,
2013-08-17 17:30:00,85.8,78.9,30.04,ESE,116,7.0,7.0,80,0.00,,,0.00,248,Wunderground v.1.15,2013-08-17 21:30:00,
2013-08-17 17:36:00,85.4,78.9,30.04,SSE,153,7.0,12.0,81,0.00,,,0.00,174,Wunderground v.1.15,2013-08-17 21:36:00,
2013-08-17 17:42:00,85.1,78.2,30.04,SE,129,8.0,13.0,80,0.00,,,0.00,163,Wunderground v.1.15,2013-08-17 21:42:00,
2013-08-17 17:48:00,84.9,78.4,30.05,ESE,118,6.0,13.0,81,0.00,,,0.00,149,Wunderground v.1.15,2013-08-17 21:48:00,
2013-08-17 17:54:00,84.8,77.9,30.05,ESE,123,5.0,9.0,80,0.00,,,0.00,132,Wunderground v.1.15,2013-08-17 21:54:00,
2013-08-17 18:00:00,84.7,77.8,30.05,SE,127,6.0,6.0,80,0.00,,,0.00,121,Wunderground v.1.15,2013-08-17 22:00:00,
2013-08-17 18:06:00,84.6,78.5,30.05,SE,144,6.0,10.0,82,0.00,,,0.00,113,Wunderground v.1.15,2013-08-17 22:06:00,
2013-08-17 18:12:00,84.5,78.4,30.05,SE,128,6.0,7.0,82,0.00,,,0.00,104,Wunderground v.1.15,2013-08-17 22:12:00,
2013-08-17 18:18:00,84.3,78.2,30.04,SE,141,5.0,7.0,82,0.00,,,0.00,93,Wunderground v.1.15,2013-08-17 22:18:00,
2013-08-17 18:24:00,84.2,78.1,30.05,ESE,116,7.0,11.0,82,0.00,,,0.00,81,Wunderground v.1.15,2013-08-17 22:24:00,
2013-08-17 18:30:00,84.1,78.4,30.05,SE,143,6.0,6.0,83,0.00,,,0.00,72,Wunderground v.1.15,2013-08-17 22:30:00,
2013-08-17 18:36:00,84.0,78.3,30.05,SE,127,6.0,6.0,83,0.00,,,0.00,65,Wunderground v.1.15,2013-08-17 22:36:00,
2013-08-17 18:42:00,83.9,78.2,30.05,SE,142,6.0,6.0,83,0.00,,,0.00,58,Wunderground v.1.15,2013-08-17 22:42:00,
2013-08-17 18:48:00,83.8,78.1,30.05,SE,144,5.0,9.0,83,0.00,,,0.00,53,Wunderground v.1.15,2013-08-17 22:48:00,
2013-08-17 18:54:00,83.8,78.4,30.06,SE,130,5.0,8.0,84,0.00,,,0.00,47,Wunderground v.1.15,2013-08-17 22:54:00,
2013-08-17 19:00:00,83.7,78.3,30.06,SE,126,5.0,6.0,84,0.00,,,0.00,40,Wunderground v.1.15,2013-08-17 23:00:00,
2013-08-17 19:06:00,83.6,78.2,30.06,SE,146,5.0,6.0,84,0.00,,,0.00,35,Wunderground v.1.15,2013-08-17 23:06:00,
2013-08-17 19:12:00,83.6,78.2,30.06,SE,134,5.0,5.0,84,0.00,,,0.00,32,Wunderground v.1.15,2013-08-17 23:12:00,
2013-08-17 19:18:00,83.6,78.2,30.06,ESE,114,5.0,5.0,84,0.00,,,0.00,28,Wunderground v.1.15,2013-08-17 23:18:00,
2013-08-17 19:24:00,83.5,78.2,30.06,SE,139,5.0,9.0,84,0.00,,,0.00,25,Wunderground v.1.15,2013-08-17 23:24:00,
2013-08-17 19:30:00,83.5,78.2,30.07,ESE,111,5.0,5.0,84,0.00,,,0.00,19,Wunderground v.1.15,2013-08-17 23:30:00,
2013-08-17 19:36:00,83.4,77.7,30.07,ESE,114,5.0,5.0,83,0.00,,,0.00,14,Wunderground v.1.15,2013-08-17 23:36:00,
2013-08-17 19:42:00,83.4,77.7,30.08,ESE,111,4.0,4.0,83,0.00,,,0.00,11,Wunderground v.1.15,2013-08-17 23:42:00,
2013-08-17 19:47:00,83.4,78.1,30.08,ESE,111,4.0,7.0,84,0.00,,,0.00,5,Wunderground v.1.15,2013-08-17 23:47:00,
2013-08-17 19:54:00,83.3,78.0,30.08,SE,138,4.0,5.0,84,0.00,,,0.00,0,Wunderground v.1.15,2013-08-17 23:54:00,
2013-08-17 20:00:00,83.3,78.0,30.09,SE,128,4.0,4.0,84,0.00,,,0.00,0,Wunderground v.1.15,2013-08-18 00:00:00,
2013-08-17 20:06:00,83.3,78.0,30.09,ESE,115,4.0,4.0,84,0.00,,,0.00,0,Wunderground v.1.15,2013-08-18 00:06:00,
2013-08-17 20:11:00,83.2,77.9,30.09,ESE,111,3.0,5.0,84,0.00,,,0.00,0,Wunderground v.1.15,2013-08-18 00:11:00,
2013-08-17 20:18:00,83.2,77.9,30.09,ESE,106,4.0,5.0,84,0.00,,,0.00,0,Wunderground v.1.15,2013-08-18 00:18:00,
2013-08-17 20:24:00,83.3,78.3,30.09,SE,132,4.0,5.0,85,0.00,,,0.00,0,Wunderground v.1.15,2013-08-18 00:24:00,
2013-08-17 20:30:00,83.2,78.2,30.09,ESE,111,4.0,4.0,85,0.00,,,0.00,0,Wunderground v.1.15,2013-08-18 00:30:00,
2013-08-17 20:36:00,83.2,78.6,30.09,ESE,123,4.0,6.0,86,0.00,,,0.00,0,Wunderground v.1.15,2013-08-18 00:36:00,
2013-08-17 20:42:00,83.2,78.6,30.09,ESE,111,3.0,3.0,86,0.00,,,0.00,0,Wunderground v.1.15,2013-08-18 00:42:00,
2013-08-17 20:48:00,83.1,78.8,30.09,ESE,114,3.0,4.0,87,0.00,,,0.00,0,Wunderground v.1.15,2013-08-18 00:48:00,
2013-08-17 20:54:00,83.0,78.7,30.09,ESE,105,2.0,3.0,87,0.00,,,0.00,0,Wunderground v.1.15,2013-08-18 00:54:00,
2013-08-17 21:00:00,82.9,79.0,30.09,ESE,121,2.0,3.0,88,0.00,,,0.00,0,Wunderground v.1.15,2013-08-18 01:00:00,
2013-08-17 21:06:00,82.9,79.0,30.10,ESE,111,3.0,6.0,88,0.00,,,0.00,0,Wunderground v.1.15,2013-08-18 01:06:00,
2013-08-17 21:12:00,82.9,79.0,30.10,ESE,122,3.0,4.0,88,0.00,,,0.00,0,Wunderground v.1.15,2013-08-18 01:12:00,
2013-08-17 21:18:00,82.9,79.0,30.10,ESE,103,3.0,6.0,88,0.00,,,0.00,0,Wunderground v.1.15,2013-08-18 01:18:00,
2013-08-17 21:24:00,82.9,79.3,30.10,ESE,109,4.0,6.0,89,0.00,,,0.00,0,Wunderground v.1.15,2013-08-18 01:24:00,
2013-08-17 21:30:00,82.9,79.3,30.10,ESE,121,3.0,4.0,89,0.00,,,0.00,0,Wunderground v.1.15,2013-08-18 01:30:00,
2013-08-17 21:36:00,82.8,79.2,30.10,ESE,110,3.0,5.0,89,0.00,,,0.00,0,Wunderground v.1.15,2013-08-18 01:36:00,
2013-08-17 21:41:00,82.8,79.2,30.10,East,98,3.0,5.0,89,0.00,,,0.00,0,Wunderground v.1.15,2013-08-18 01:41:00,
2013-08-17 21:48:00,82.8,79.2,30.10,ESE,106,4.0,6.0,89,0.00,,,0.00,0,Wunderground v.1.15,2013-08-18 01:48:00,
2013-08-17 21:54:00,82.7,79.1,30.10,ESE,109,2.0,5.0,89,0.00,,,0.00,0,Wunderground v.1.15,2013-08-18 01:54:00,
2013-08-17 22:00:00,82.7,79.1,30.10,ESE,121,2.0,2.0,89,0.00,,,0.00,0,Wunderground v.1.15,2013-08-18 02:00:00,
2013-08-17 22:06:00,82.7,79.1,30.10,SE,127,5.0,6.0,89,0.00,,,0.00,0,Wunderground v.1.15,2013-08-18 02:06:00,
2013-08-17 22:12:00,82.7,78.8,30.10,ESE,105,5.0,9.0,88,0.00,,,0.00,0,Wunderground v.1.15,2013-08-18 02:12:00,
2013-08-17 22:18:00,82.8,79.2,30.11,ESE,120,4.0,9.0,89,0.00,,,0.00,0,Wunderground v.1.15,2013-08-18 02:18:00,
2013-08-17 22:23:00,82.9,79.3,30.11,ESE,113,2.0,3.0,89,0.00,,,0.00,0,Wunderground v.1.15,2013-08-18 02:23:00,
2013-08-17 22:30:00,82.8,79.2,30.11,ESE,106,3.0,3.0,89,0.00,,,0.00,0,Wunderground v.1.15,2013-08-18 02:30:00,
2013-08-17 22:36:00,82.8,79.2,30.11,ESE,111,4.0,4.0,89,0.00,,,0.00,0,Wunderground v.1.15,2013-08-18 02:36:00,
2013-08-17 22:42:00,82.8,79.6,30.11,East,98,3.0,5.0,90,0.00,,,0.00,0,Wunderground v.1.15,2013-08-18 02:42:00,
2013-08-17 22:48:00,82.7,79.1,30.11,ESE,116,2.0,5.0,89,0.00,,,0.00,0,Wunderground v.1.15,2013-08-18 02:48:00,
2013-08-17 22:54:00,82.6,79.0,30.11,ESE,103,3.0,4.0,89,0.00,,,0.00,0,Wunderground v.1.15,2013-08-18 02:54:00,
2013-08-17 22:59:00,82.6,79.0,30.11,ESE,112,4.0,4.0,89,0.00,,,0.00,0,Wunderground v.1.15,2013-08-18 02:59:00,
2013-08-17 23:06:00,82.5,78.9,30.11,ENE,71,3.0,5.0,89,0.00,,,0.00,0,Wunderground v.1.15,2013-08-18 03:06:00,
2013-08-17 23:12:00,82.5,78.9,30.11,ESE,105,2.0,5.0,89,0.00,,,0.00,0,Wunderground v.1.15,2013-08-18 03:12:00,
2013-08-17 23:18:00,82.5,78.9,30.10,East,94,2.0,5.0,89,0.00,,,0.00,0,Wunderground v.1.15,2013-08-18 03:18:00,
2013-08-17 23:24:00,82.4,78.5,30.10,East,97,3.0,6.0,88,0.00,,,0.00,0,Wunderground v.1.15,2013-08-18 03:24:00,
2013-08-17 23:30:00,82.4,78.5,30.10,East,94,3.0,4.0,88,0.00,,,0.00,0,Wunderground v.1.15,2013-08-18 03:30:00,
2013-08-17 23:36:00,82.4,78.5,30.10,ESE,105,3.0,5.0,88,0.00,,,0.00,0,Wunderground v.1.15,2013-08-18 03:36:00,
2013-08-17 23:42:00,82.4,78.5,30.10,ESE,109,3.0,5.0,88,0.00,,,0.00,0,Wunderground v.1.15,2013-08-18 03:42:00,
2013-08-17 23:48:00,82.4,78.5,30.10,ESE,104,3.0,5.0,88,0.00,,,0.00,0,Wunderground v.1.15,2013-08-18 03:48:00,
2013-08-17 23:53:00,82.4,78.5,30.10,East,94,3.0,3.0,88,0.00,,,0.00,0,Wunderground v.1.15,2013-08-18 03:53:00,